FUNCUBE-1 (AO-73) (39444 NORAD) Tracking and Keplerian Element Data

This shows tracking and keplerian element data for the satellite.

Feedback or suggestion? Click here.




ElementValue
Catalog39444
NameFUNCUBE-1 (AO-73)
Epoch Orbit60533
Epoch Day34.94193803
Epoch Year2025
RAAN356.9227
Inclination97.7488
Eccentricity0.0043556
Argument of Perigee87.4448
Mean Anonmoly273.176
Mean Motion14.98932799
Decay Rate0.00012473
L11 39444U 13066AE 25034.94193803 .00012473 00000+0 10149-2 0 9994
L22 39444 97.7488 356.9227 0043556 87.4448 273.1760 14.98932799605335



Live tracking and technical data element details for FUNCUBE-1 (AO-73) (NORAD 39444). FUNCUBE-1 (AO-73) can be tracked NOW for your location showing map with azimuth and elevation plus other details from your city location.







IsCatalogInMostPopularTable: catalog: 39444, numindb: 727
Update: records affected: 1



GetName: 39444 FUNCUBE-1 (AO-73)

Hit Count: updated at: Sat, 06 Dec 2025 12:25:26 GMT